McAllen, TX

6:24 AM CST on February 09, 2016 (GMT -0600)
McAllen Miller International

Weather History for KMFE - November, 2012

Change the Weather History Date:

Sunday, November 18, 2012

  Actual Average Record
Temperature  
Mean Temperature 67 °F 69 °F  
Max Temperature 79 °F 79 °F 91 °F (1948)
Min Temperature 55 °F 58 °F 32 °F (1896)
Degree Days  
Heating Degree Days 0 2  
Month to date heating degree days 5 22  
Since 1 July heating degree days 10 27  
Cooling Degree Days 2 6  
Month to date cooling degree days 146 133  
Year to date cooling degree days 5025 4315  
Growing Degree Days 16 (Base 50)    
Moisture  
Dew Point 54 °F    
Average Humidity 66    
Maximum Humidity 86    
Minimum Humidity 45    
Precipitation  
Precipitation 0.00 in 0.03 in 1.09 in (1976)
Month to date precipitation 0.04 0.58  
Year to date precipitation 16.67 20.70  
Sea Level Pressure  
Sea Level Pressure 30.20 in    
Wind  
Wind Speed 7 mph (East)    
Max Wind Speed 16 mph    
Max Gust Speed 21 mph    
Visibility 10 miles    
Events      
T = Trace of Precipitation, MM = Missing Value Source: NWS Daily Summary

Daily Weather History Graph

Daily Weather History Graph

Search for Another Location

Airport or City:

Trip Planner

Search our weather history database for the weather conditions in past years. The results will help you decide how hot, cold, wet, or windy it might be!

Date:

Astronomy

Nov. 18, 2012 Rise Set
Actual Time 6:54 AM CST 5:42 PM CST
Civil Twilight 6:29 AM CST 6:06 PM CST
Nautical Twilight 6:01 AM CST 6:34 PM CST
Astronomical Twilight 5:33 AM CST 7:02 PM CST
Moon 11:27 AM CST (11/18) 10:54 PM CST (11/18)
Length of Visible Light 11h 37m
Length of Day
10h 48m
Waxing Crescent, 30% of the Moon is Illuminated
Nov 18
Waxing Crescent
Nov 20
First Quarter
Nov 28
Full
Dec 6
Last Quarter
Dec 13
New

Hourly Weather History & Observations

Time (CST) Temp. Dew Point Humidity Pressure Visibility Wind Dir Wind Speed Gust Speed Precip Events Conditions
12:53 AM 59.0 °F 53.1 °F 81% 30.24 in 10.0 mi Calm Calm - N/A   Clear
1:53 AM 59.0 °F 52.0 °F 78% 30.23 in 10.0 mi Calm Calm - N/A   Clear
2:53 AM 57.0 °F 52.0 °F 83% 30.22 in 10.0 mi Calm Calm - N/A   Clear
3:53 AM 55.9 °F 51.1 °F 84% 30.21 in 10.0 mi North 3.5 mph - N/A   Clear
4:53 AM 55.9 °F 51.1 °F 84% 30.21 in 10.0 mi North 3.5 mph - N/A   Clear
5:53 AM 57.0 °F 52.0 °F 83% 30.21 in 10.0 mi Calm Calm - N/A   Clear
6:53 AM 55.9 °F 51.1 °F 84% 30.22 in 10.0 mi Calm Calm - N/A   Clear
7:53 AM 59.0 °F 53.1 °F 81% 30.23 in 10.0 mi North 3.5 mph - N/A   Overcast
8:53 AM 64.0 °F 54.0 °F 70% 30.24 in 10.0 mi East 3.5 mph - N/A   Overcast
9:53 AM 70.0 °F 55.0 °F 59% 30.24 in 10.0 mi East 6.9 mph - N/A   Overcast
10:53 AM 73.9 °F 54.0 °F 50% 30.23 in 10.0 mi East 12.7 mph - N/A   Overcast
11:53 AM 75.9 °F 55.0 °F 48% 30.21 in 10.0 mi East 12.7 mph - N/A   Mostly Cloudy
12:53 PM 78.1 °F 55.0 °F 45% 30.17 in 10.0 mi SE 13.8 mph 19.6 mph N/A   Overcast
1:53 PM 77.0 °F 55.0 °F 47% 30.15 in 10.0 mi SE 11.5 mph - N/A   Overcast
2:53 PM 78.1 °F 55.0 °F 45% 30.14 in 10.0 mi ESE 12.7 mph - N/A   Overcast
3:53 PM 77.0 °F 55.0 °F 47% 30.14 in 10.0 mi ESE 11.5 mph - N/A   Overcast
4:53 PM 75.0 °F 55.0 °F 50% 30.15 in 10.0 mi East 10.4 mph - N/A   Overcast
5:53 PM 73.9 °F 55.0 °F 52% 30.17 in 10.0 mi East 9.2 mph - N/A   Overcast
6:53 PM 72.0 °F 55.0 °F 55% 30.18 in 10.0 mi ESE 11.5 mph - N/A   Mostly Cloudy
7:53 PM 70.0 °F 54.0 °F 57% 30.20 in 10.0 mi ESE 9.2 mph - N/A   Partly Cloudy
8:53 PM 69.1 °F 54.0 °F 58% 30.21 in 10.0 mi ESE 9.2 mph - N/A   Clear
9:53 PM 68.0 °F 55.0 °F 63% 30.21 in 10.0 mi ESE 10.4 mph - N/A   Clear
10:53 PM 66.9 °F 55.9 °F 68% 30.20 in 10.0 mi East 6.9 mph - N/A   Clear
11:53 PM 66.0 °F 55.9 °F 70% 30.19 in 10.0 mi ESE 6.9 mph - N/A   Clear